Location: Rancho Del Sol Observatory
(38.7214°N, 120.6350°W)
Time: 13:59:32
(UTC-08:00)

A-11 Canister half - Pass Details

Date: 28 January 2020
Orbit: 1517 x 1683 km, 47.2° (Epoch: 19 February)

Event Time Altitude Azimuth Distance (km) Brightness Sun altitude
Rises 03:38:15 0° 297° (WNW) 4,680 - -41.7°
Reaches altitude 10° 03:41:20 10° 300° (WNW) 3,687 - -41.1°
Maximum altitude 03:50:35 70° 24° (NNE) 1,599 - -39.3°
Exits shadow 03:51:00 69° 41° (NE) 1,606 9.0 -39.2°
Drops below altitude 10° 03:59:51 10° 107° (ESE) 3,700 11.6 -37.5°
Sets 04:02:57 0° 110° (ESE) 4,696 12.3 -36.9°
